When you browse on this site, cookies collect data to enhance your experience and personalize the content and advertising you see.
Visit our Privacy Policy to learn more. By continuing to use the site, you agree to this use of cookies and data.
  • en Suisse
  • Liste des pays
  • À 7 jours
  • Température de l'eau
  • Carte satellitaire
  • Carte météo
  • Widgets météo
  • user-avatar
    Se connecter

    Météo par heure à Shondrovo

    Ce jour, 25 Juin, Mardi

    Heure Température Précipitation Vent Pression Humidité
    00:00 +16°C° 0 mm 3 m/s 747 mmHg 77%
    01:00 +14°C° 0 mm 3 m/s 747 mmHg 77%
    02:00 +14°C° 0 mm 3 m/s 747 mmHg 76%
    03:00 +14°C° 0 mm 2 m/s 748 mmHg 79%
    04:00 +15°C° 0 mm 2 m/s 748 mmHg 79%
    05:00 +15°C° 0 mm 2 m/s 748 mmHg 79%
    06:00 +14°C° 0 mm 3 m/s 748 mmHg 79%
    07:00 +16°C° 0 mm 3 m/s 749 mmHg 73%
    08:00 +18°C° 0 mm 3 m/s 749 mmHg 67%
    09:00 +19°C° 0 mm 3 m/s 750 mmHg 63%
    10:00 +20°C° 0 mm 3 m/s 750 mmHg 61%
    11:00 +21°C° 0 mm 3 m/s 750 mmHg 59%
    12:00 +21°C° 0 mm 3 m/s 750 mmHg 57%
    13:00 +22°C° 0.1 mm 4 m/s 750 mmHg 56%
    14:00 +22°C° 0.1 mm 4 m/s 750 mmHg 54%
    15:00 +22°C° 0.1 mm 4 m/s 750 mmHg 53%
    16:00 +22°C° 0 mm 3 m/s 749 mmHg 57%
    17:00 +21°C° 0 mm 3 m/s 749 mmHg 61%
    18:00 +21°C° 0 mm 2 m/s 749 mmHg 65%
    19:00 +19°C° 0 mm 2 m/s 749 mmHg 68%
    20:00 +18°C° 0 mm 2 m/s 749 mmHg 70%
    21:00 +16°C° 0 mm 1 m/s 750 mmHg 72%
    22:00 +15°C° 0 mm 1 m/s 749 mmHg 73%
    23:00 +15°C° 0 mm 1 m/s 749 mmHg 74%

    Demain, 26 Juin, Mercredi

    Heure Température Précipitation Vent Pression Humidité
    00:00 +13°C° 0 mm 0 m/s 749 mmHg 75%
    01:00 +12°C° 0 mm 0 m/s 749 mmHg 76%
    02:00 +13°C° 0 mm 1 m/s 749 mmHg 77%
    03:00 +13°C° 0 mm 1 m/s 750 mmHg 78%
    04:00 +14°C° 0 mm 1 m/s 749 mmHg 78%
    05:00 +14°C° 0 mm 1 m/s 749 mmHg 79%
    06:00 +15°C° 0 mm 1 m/s 749 mmHg 80%
    07:00 +16°C° 0 mm 1 m/s 749 mmHg 75%
    08:00 +19°C° 0 mm 1 m/s 749 mmHg 71%
    09:00 +19°C° 0 mm 2 m/s 749 mmHg 67%
    10:00 +20°C° 0 mm 2 m/s 748 mmHg 62%
    11:00 +21°C° 0 mm 2 m/s 748 mmHg 58%
    12:00 +22°C° 0 mm 3 m/s 748 mmHg 54%
    13:00 +22°C° 0.1 mm 3 m/s 747 mmHg 56%
    14:00 +22°C° 0.1 mm 3 m/s 747 mmHg 59%
    15:00 +22°C° 0.1 mm 3 m/s 747 mmHg 61%
    16:00 +22°C° 0.2 mm 3 m/s 746 mmHg 64%
    17:00 +23°C° 0.2 mm 2 m/s 745 mmHg 67%
    18:00 +23°C° 0.2 mm 2 m/s 745 mmHg 70%
    19:00 +21°C° 0 mm 1 m/s 745 mmHg 73%
    20:00 +20°C° 0 mm 1 m/s 744 mmHg 76%
    21:00 +19°C° 0 mm 1 m/s 744 mmHg 79%
    22:00 +18°C° 0 mm 1 m/s 743 mmHg 81%
    23:00 +16°C° 0 mm 2 m/s 742 mmHg 84%

    Après-demain, 27 Juin, Jeudi

    Heure Température Précipitation Vent Pression Humidité
    00:00 +16°C° 0 mm 2 m/s 742 mmHg 87%
    01:00 +16°C° 0 mm 3 m/s 741 mmHg 88%
    02:00 +14°C° 0 mm 3 m/s 740 mmHg 88%
    03:00 +14°C° 0 mm 4 m/s 740 mmHg 89%
    04:00 +14°C° 2 mm 4 m/s 739 mmHg 91%
    05:00 +14°C° 2 mm 5 m/s 738 mmHg 94%
    06:00 +14°C° 2 mm 5 m/s 737 mmHg 96%
    07:00 +15°C° 3.4 mm 5 m/s 736 mmHg 95%
    08:00 +16°C° 3.4 mm 6 m/s 735 mmHg 94%
    09:00 +17°C° 3.4 mm 6 m/s 735 mmHg 93%
    10:00 +17°C° 0.6 mm 6 m/s 734 mmHg 93%
    11:00 +19°C° 0.6 mm 6 m/s 733 mmHg 94%
    12:00 +19°C° 0.6 mm 5 m/s 732 mmHg 94%
    13:00 +19°C° 1.5 mm 6 m/s 732 mmHg 94%
    14:00 +19°C° 1.5 mm 6 m/s 731 mmHg 94%
    15:00 +20°C° 1.5 mm 7 m/s 731 mmHg 94%
    16:00 +20°C° 0.4 mm 7 m/s 730 mmHg 92%
    17:00 +21°C° 0.4 mm 7 m/s 729 mmHg 90%
    18:00 +21°C° 0.4 mm 7 m/s 728 mmHg 88%
    19:00 +20°C° 2.6 mm 6 m/s 728 mmHg 91%
    20:00 +20°C° 2.6 mm 5 m/s 727 mmHg 93%
    21:00 +19°C° 2.6 mm 4 m/s 726 mmHg 95%
    22:00 +19°C° 1.9 mm 4 m/s 726 mmHg 95%
    23:00 +18°C° 1.9 mm 4 m/s 725 mmHg 95%

    28 Juin, Vendredi

    Heure Température Précipitation Vent Pression Humidité
    00:00 +18°C° 1.9 mm 4 m/s 725 mmHg 96%
    01:00 +17°C° 0.1 mm 4 m/s 724 mmHg 95%
    02:00 +16°C° 0.1 mm 5 m/s 724 mmHg 95%
    03:00 +16°C° 0.1 mm 6 m/s 724 mmHg 95%
    04:00 +15°C° 0 mm 6 m/s 724 mmHg 94%
    05:00 +15°C° 0 mm 6 m/s 724 mmHg 94%
    06:00 +14°C° 0 mm 6 m/s 723 mmHg 93%
    07:00 +14°C° 0 mm 7 m/s 723 mmHg 91%
    08:00 +14°C° 0 mm 7 m/s 723 mmHg 89%
    09:00 +15°C° 0 mm 7 m/s 723 mmHg 87%
    10:00 +14°C° 0 mm 7 m/s 723 mmHg 87%
    11:00 +14°C° 0 mm 7 m/s 723 mmHg 87%
    12:00 +14°C° 0 mm 7 m/s 723 mmHg 86%
    13:00 +14°C° 0.1 mm 7 m/s 723 mmHg 87%
    14:00 +15°C° 0.1 mm 7 m/s 723 mmHg 87%
    15:00 +15°C° 0.1 mm 7 m/s 722 mmHg 88%
    16:00 +14°C° 0.1 mm 6 m/s 722 mmHg 88%
    17:00 +14°C° 0.1 mm 6 m/s 722 mmHg 89%
    18:00 +13°C° 0.1 mm 6 m/s 722 mmHg 90%
    19:00 +13°C° 0.1 mm 6 m/s 723 mmHg 91%
    20:00 +11°C° 0.1 mm 6 m/s 723 mmHg 92%
    21:00 +11°C° 0.1 mm 6 m/s 723 mmHg 93%
    22:00 +11°C° 0.5 mm 6 m/s 723 mmHg 94%
    23:00 +10°C° 0.5 mm 6 m/s 723 mmHg 95%

    29 Juin, Samedi

    Heure Température Précipitation Vent Pression Humidité
    00:00 +10°C° 0.5 mm 6 m/s 723 mmHg 96%
    01:00 +10°C° 0.5 mm 6 m/s 723 mmHg 95%
    02:00 +10°C° 0.5 mm 6 m/s 723 mmHg 95%
    03:00 +10°C° 0.5 mm 6 m/s 723 mmHg 95%
    04:00 +10°C° 0.4 mm 6 m/s 724 mmHg 95%
    05:00 +10°C° 0.4 mm 6 m/s 724 mmHg 95%
    06:00 +10°C° 0.4 mm 6 m/s 724 mmHg 95%
    07:00 +10°C° 0.5 mm 6 m/s 725 mmHg 94%
    08:00 +10°C° 0.5 mm 7 m/s 726 mmHg 94%
    09:00 +9°C° 0.5 mm 7 m/s 726 mmHg 94%
    10:00 +9°C° 0.2 mm 7 m/s 727 mmHg 93%
    11:00 +9°C° 0.2 mm 7 m/s 728 mmHg 92%
    12:00 +10°C° 0.2 mm 7 m/s 728 mmHg 91%
    13:00 +9°C° 0.1 mm 7 m/s 729 mmHg 90%
    14:00 +9°C° 0.1 mm 7 m/s 730 mmHg 89%
    15:00 +9°C° 0.1 mm 6 m/s 730 mmHg 88%
    16:00 +9°C° 0 mm 6 m/s 731 mmHg 86%
    17:00 +9°C° 0 mm 5 m/s 731 mmHg 83%
    18:00 +11°C° 0 mm 4 m/s 731 mmHg 80%
    19:00 +10°C° 0 mm 4 m/s 732 mmHg 81%
    20:00 +10°C° 0 mm 4 m/s 732 mmHg 82%
    21:00 +10°C° 0 mm 3 m/s 732 mmHg 82%
    22:00 +10°C° 0 mm 3 m/s 733 mmHg 80%
    23:00 +10°C° 0 mm 3 m/s 733 mmHg 78%

    30 Juin, Dimanche

    Heure Température Précipitation Vent Pression Humidité
    00:00 +10°C° 0 mm 2 m/s 733 mmHg 76%
    01:00 +9°C° 0 mm 3 m/s 733 mmHg 79%
    02:00 +9°C° 0 mm 3 m/s 733 mmHg 81%
    03:00 +8°C° 0 mm 3 m/s 734 mmHg 83%
    04:00 +8°C° 0 mm 3 m/s 734 mmHg 83%
    05:00 +9°C° 0 mm 3 m/s 734 mmHg 82%
    06:00 +9°C° 0 mm 3 m/s 734 mmHg 81%
    07:00 +10°C° 0 mm 4 m/s 734 mmHg 77%
    08:00 +12°C° 0 mm 4 m/s 734 mmHg 74%
    09:00 +13°C° 0 mm 4 m/s 735 mmHg 70%
    10:00 +14°C° 0 mm 4 m/s 735 mmHg 66%
    11:00 +15°C° 0 mm 4 m/s 735 mmHg 62%
    12:00 +17°C° 0 mm 4 m/s 735 mmHg 57%
    13:00 +18°C° 0 mm 4 m/s 735 mmHg 56%
    14:00 +18°C° 0 mm 4 m/s 735 mmHg 55%
    15:00 +19°C° 0 mm 4 m/s 735 mmHg 54%
    16:00 +18°C° 0 mm 3 m/s 736 mmHg 57%
    17:00 +18°C° 0 mm 3 m/s 736 mmHg 60%
    18:00 +18°C° 0 mm 2 m/s 736 mmHg 63%
    19:00 +16°C° 0 mm 2 m/s 736 mmHg 66%
    20:00 +15°C° 0 mm 2 m/s 736 mmHg 68%
    21:00 +13°C° 0 mm 2 m/s 736 mmHg 71%
    22:00 +12°C° 0 mm 2 m/s 736 mmHg 77%
    23:00 +12°C° 0 mm 2 m/s 737 mmHg 82%
    Voir plus